OK2MD-6 Weather Reports


time (UTC)temp
F
wind
direction
speed
knots
gust
knots
rain 1hr
in
rain 24hr
in
rain mn
in
humidity
%
barometer
mb
20260905182004 69 312 0.9 3.5 0.00 0.03 0.03 53 1020.2
20260905180026 69 319 0.9 7.0 0.00 0.03 0.03 52 1020.1
20260905174004 70 306 1.7 6.1 0.00 0.03 0.03 50 1019.7
20260905172004 71 314 2.6 7.0 0.00 0.03 0.03 48 1019.5
20260905170003 72 307 3.5 9.6 0.00 0.03 0.03 46 1019.4
20260905164004 73 314 4.3 10.4 0.00 0.03 0.03 44 1019.2
20260905162003 73 304 4.3 10.4 0.00 0.03 0.03 44 1019.2
20260905160004 73 315 5.2 16.5 0.00 0.03 0.03 44 1019.2
20260905154004 73 299 3.5 14.8 0.00 0.03 0.03 44 1019.3
20260905152004 74 300 6.1 13.9 0.00 0.03 0.03 41 1019.1
20260905150004 75 303 5.2 10.4 0.00 0.03 0.03 41 1019.1
20260905144004 75 305 5.2 13.0 0.00 0.03 0.03 42 1019.0
20260905142025 75 327 6.1 15.6 0.00 0.03 0.03 42 1019.1
20260905140025 75 300 7.8 13.9 0.00 0.03 0.03 42 1018.9
20260905134004 74 315 7.0 13.9 0.00 0.03 0.03 43 1018.9
20260905132004 76 302 5.2 11.3 0.00 0.03 0.03 45 1019.2
20260905130004 75 312 7.0 12.2 0.00 0.03 0.03 44 1018.9
20260905124003 74 315 6.1 13.0 0.00 0.03 0.03 44 1018.9
20260905122005 74 309 5.2 10.4 0.00 0.03 0.03 46 1019.1
20260905120004 74 297 4.3 10.4 0.00 0.03 0.03 47 1019.3
20260905114004 73 303 4.3 10.4 0.00 0.03 0.03 51 1019.2
20260905112003 73 299 5.2 10.4 0.00 0.03 0.03 52 1019.3
20260905110004 72 306 4.3 10.4 0.00 0.03 0.03 52 1019.4
20260905104026 72 297 4.3 10.4 0.00 0.03 0.03 57 1019.2
20260905102004 70 319 3.5 8.7 0.00 0.03 0.03 64 1019.4
20260905100003 68 308 2.6 8.7 0.00 0.03 0.03 70 1019.7
20260905094004 68 280 2.6 8.7 0.00 0.03 0.03 69 1019.7
20260905092005 67 290 2.6 7.8 0.00 0.03 0.03 74 1019.9
20260905090025 65 285 2.6 7.0 0.00 0.03 0.03 79 1020.1
20260905084025 63 323 0.9 3.5 0.00 0.03 0.03 82 1020.1
20260905082003 62 324 0.0 0.9 0.00 0.03 0.03 85 1020.2
20260905080005 60 324 0.9 4.3 0.00 0.03 0.03 86 1019.8
20260905074003 60 325 1.7 4.3 0.00 0.03 0.03 88 1019.1
20260905072003 59 327 2.6 7.0 0.00 0.03 0.03 87 1018.9
20260905070005 59 280 3.5 9.6 0.00 0.03 0.03 87 1017.7
20260905064003 60 297 2.6 7.8 0.00 0.03 0.03 84 1018.5
20260905062003 60 304 2.6 7.0 0.00 0.03 0.03 83 1019.4
20260905060004 60 314 3.5 8.7 0.01 0.03 0.03 83 1018.9
20260905054026 60 314 1.7 5.2 0.01 0.03 0.03 86 1018.7
20260905052004 60 314 0.0 2.6 0.01 0.03 0.03 88 1018.0
20260905050004 61 313 0.0 1.7 0.01 0.02 0.02 88 1018.2
20260905044004 61 313 0.0 0.9 0.02 0.02 0.02 87 1017.4
20260905042003 62 313 1.7 4.3 0.02 0.02 0.02 84 1017.0
20260905040004 65 311 2.6 7.8 0.02 0.02 0.02 76 1016.6
20260905034004 65 322 1.7 7.0 0.00 0.00 0.00 72 1016.3
20260905032005 67 326 4.3 12.2 0.00 0.00 0.00 65 1015.8
20260905030003 67 318 2.6 10.4 0.00 0.00 0.00 65 1015.3
20260905024003 68 324 1.7 7.0 0.00 0.00 0.00 64 1015.1
20260905022005 68 333 4.3 12.2 0.00 0.00 0.00 63 1015.1
20260905020003 68 334 3.5 12.2 0.00 0.00 0.00 63 1014.8
20260905014004 69 318 5.2 10.4 0.00 0.00 0.00 64 1014.8
20260905012003 71 339 4.3 15.6 0.00 0.00 0.00 64 1014.4
20260905010004 75 284 1.7 5.2 0.00 0.00 0.00 55 1013.5
20260905004004 75 279 0.9 3.5 0.00 0.00 0.00 56 1012.8
20260905002004 74 279 0.9 2.6 0.00 0.00 0.00 56 1012.6
20260905000004 75 280 0.9 3.5 0.00 0.00 0.00 55 1012.3
20260904234005 75 275 1.7 6.1 0.00 0.00 0.00 55 1012.3
20260904232025 75 263 0.9 5.2 0.00 0.00 0.00 56 1012.2
20260904230003 75 259 0.0 2.6 0.00 0.00 0.00 55 1012.1
20260904224003 74 255 0.0 1.7 0.00 0.00 0.00 56 1012.0
20260904222004 74 255 0.0 0.9 0.00 0.00 0.00 56 1012.1
20260904220004 75 255 0.0 1.7 0.00 0.00 0.00 54 1011.9
20260904214003 75 254 0.0 1.7 0.00 0.00 0.00 54 1011.9
20260904212025 75 250 0.9 2.6 0.00 0.00 0.00 54 1011.9
20260904210005 74 248 0.0 1.7 0.00 0.00 0.00 58 1012.0
20260904204003 72 248 0.0 0.9 0.00 0.00 0.00 62 1012.0
20260904202004 71 248 0.0 0.9 0.00 0.00 0.00 64 1012.2
20260904200004 68 0 0.0 0.0 0.00 0.00 0.00 70 1012.4
20260904194025 68 0 0.0 0.0 0.00 0.00 0.00 70 1012.5
20260904192003 69 0 0.0 0.0 0.00 0.00 0.00 69 1012.6
20260904190005 70 0 0.0 0.0 0.00 0.00 0.00 66 1012.7
20260904184003 72 0 0.0 0.0 0.00 0.00 0.00 63 1012.7